Flag for Russia Weather past 2 weeks in Yekaterinburg, Russia

Now
5 °F

Clear.


Feels Like: 5 °F
Forecast: 25 / 31 °F
Wind: 1 mph from Southeast

Location: Ekaterinburg

Current Time: Feb 2, 2015 at 6:51:59 AM

Latest Report: Feb 2, 2015 at 6:00 AM


Visibility: 10 mi

Pressure: 30.30 "Hg

Humidity: 85%

Dew point: 1 °F

Location of YekaterinburgLocation

Historic Weather in Yekaterinburg — Graph

°F

Yekaterinburg temperature yesterday

Maximum temperature yesterday: 23 °F (at 4:00 PM)
Minimum temperature yesterday: -9 °F (at 4:30 AM)
Average temperature yesterday: 7 °F

Past Weeks' High & Low Weather Summary

 TemperatureHumidityPressure
High32 °F (Jan 18, 8:00 PM)93% (Jan 19, 5:00 AM)30.80 "Hg (Jan 19, 5:00 AM)
Low-18 °F (Jan 25, 2:00 AM)27% (Jan 27, 4:00 PM)29.71 "Hg (Jan 18, 9:30 PM)
Average9 °F71%30.23 "Hg
* Reported Jan 18 5:00 AM — Feb 2 5:30 AM, Yekaterinburg, Weather by CustomWeather, © 2014

Note: Actual official high and low records may vary slightly from our data, if they occured in-between our weather recording intervals... More about our weather records

Advertising

Yekaterinburg weather history for previous 24 hours

 ConditionsComfort  
Time TempWeatherWind HumidityBarometerVisibility
5:30 AM
Feb 2
5 °FClear.No wind78%30.30 "Hg10 mi
5:00 AM12 °FClear.No wind79%30.30 "Hg10 mi
4:30 AM10 °FClear.No wind79%30.30 "Hg10 mi
4:00 AM14 °FClear.No wind73%30.30 "Hg10 mi
3:30 AM16 °FClear.1 mph73%30.30 "Hg10 mi
3:00 AM14 °FClear.No wind73%30.30 "Hg10 mi
2:30 AM14 °FClear.No wind73%30.30 "Hg10 mi
1:30 AM16 °FClear.1 mph79%30.30 "Hg10 mi
1:00 AM16 °FClear.1 mph73%30.30 "Hg10 mi
12:30 AM16 °FPassing clouds.3 mph73%30.30 "HgN/A
12:00 AM18 °FPartly cloudy.1 mph73%30.30 "HgN/A
11:30 PM
Feb 1
18 °FPartly cloudy.1 mph73%30.30 "HgN/A
11:00 PM18 °FPartly cloudy.3 mph73%30.30 "HgN/A
10:30 PM19 °FPartly cloudy.1 mph68%30.30 "HgN/A
10:00 PM18 °FPartly cloudy.1 mph73%30.30 "HgN/A
9:30 PM19 °FMostly cloudy.3 mph73%30.33 "HgN/A
9:00 PM18 °FPassing clouds.1 mph68%30.33 "HgN/A
8:30 PM19 °FPassing clouds.3 mph68%30.30 "HgN/A
8:00 PM19 °FClear.No wind68%30.30 "Hg10 mi
7:30 PM19 °FClear.1 mph73%30.30 "Hg10 mi
7:00 PM21 °FPassing clouds.3 mph68%30.30 "Hg4 mi
6:30 PM21 °FPassing clouds.3 mph74%30.30 "Hg4 mi
6:00 PM21 °FMore clouds than sun.3 mph74%30.30 "HgN/A
5:30 PM16 °FMostly cloudy.3 mph79%30.30 "HgN/A
5:00 PM19 °FPartly sunny.1 mph73%30.30 "HgN/A
4:30 PM21 °FPartly sunny.No wind74%30.30 "HgN/A
4:00 PM23 °FPartly sunny.No wind68%30.27 "HgN/A
3:30 PM21 °FPartly sunny.No wind74%30.27 "HgN/A
3:00 PM21 °FPartly sunny.No wind74%30.27 "HgN/A
2:30 PM19 °FSunny.No wind79%30.27 "Hg10 mi
2:00 PM18 °FSunny.No wind79%30.27 "Hg10 mi
1:30 PM14 °FScattered clouds.No wind85%30.27 "Hg4 mi
1:00 PM12 °FPassing clouds.No wind85%30.27 "Hg4 mi
12:30 PM9 °FScattered clouds.No wind92%30.27 "Hg4 mi
12:00 PM9 °FScattered clouds.No wind85%30.27 "Hg4 mi
11:30 AM5 °FScattered clouds.No wind92%30.27 "Hg4 mi
11:00 AM1 °FScattered clouds.No wind92%30.27 "Hg4 mi
10:30 AM-2 °FScattered clouds.No wind84%30.27 "Hg4 mi
10:00 AM-6 °FScattered clouds.No wind84%30.27 "Hg4 mi
9:30 AM-6 °FPassing clouds.No wind92%30.27 "Hg4 mi
9:00 AM-9 °FPassing clouds.No wind84%30.27 "Hg4 mi
8:30 AM-8 °FIce fog.No wind84%30.27 "Hg3 mi
8:00 AM-4 °FPassing clouds.No wind84%30.27 "Hg4 mi
7:30 AM-6 °FIce fog.No wind84%30.27 "Hg3 mi
7:00 AM-6 °FClear.No wind92%30.27 "Hg4 mi
6:30 AM-4 °FClear.No wind92%30.27 "Hg4 mi
6:00 AM-8 °FClear.No wind77%30.27 "Hg4 mi
Weather by CustomWeather, © 2014

See weather overviewHow to use our weather pages